Content
SEND FEEDBACK

Daily
Averages
Monthly
Summary
United States of America

ST. LOUIS, MISSOURI


Home > North America > United States > Missouri
Elevation: 163 meters     Latitude: 38 45N     Longitude: 090 22W

WEATHER
 
SELECT A DAY
Number of Records: 199,614;   Date Range: 1/1/95 - 10/19/14
 
SHARE

PRINT THIS DATA

[ ← Previous Day ]
WEATHER ALMANAC - APRIL 18, 2013
[ Next Day → ]
[ °C ]   °F
Weather ElementAverageHighLow
Temperature60.7 °F77 °F (1:54 am)42.1 °F (11:54 pm)
Dewpoint55.1 °F64.9 °F (5:54 am)30 °F (11:54 pm)
Humidity82.6 %94 % (6:50 am)61 % (5:22 am)
Barometer29.64 in29.80 in (9:54 pm)29.53 in (5:54 am)
Wind Speed11.4 mph21.9 mph (11:32 pm)
Wind Gust40.3 mph (6:17 am)
Weather ElementAverage
Visibility6.1 mi
Wind DirectionSSW (192.7 °)

Weather ElementTotal
Precipitation4.07 in
Heating Degree Days5.5 (Base 65)
Growing Degree Days9.6 (Base 50)
Averaged from 48 records on April 18, 2013
WEATHER CONDITIONS BREAKOUT
WIND DIRECTION BREAKOUT
WEATHER BY HOUR - APRIL 18, 2013
[ °C ]   °F
Local TimeTemperatureDewpointHumidityBarometerVisibilityWind DirectionWind SpeedGust SpeedPrecipitationEventsConditions
1:54 AM77.0 °F64.0 °F64 %29.60 in10.0 miSouth (180°)17.3 mph27.6 mphClear
2:54 AM77.0 °F64.0 °F64 %29.58 in10.0 miSouth (180°)10.4 mph19.6 mphScattered Clouds
3:54 AM77.0 °F64.0 °F64 %29.55 in10.0 miSouth (190°)13.8 mph26.5 mphScattered Clouds
4:54 AM77.0 °F63.0 °F62 %29.54 in10.0 miSSW (200°)17.3 mph31.1 mphPartly Cloudy
5:22 AM77.0 °F62.6 °F61 %29.55 in10.0 miSouth (170°)19.6 mph28.8 mphThunderstormOvercast
5:37 AM75.2 °F64.4 °F69 %29.55 in9.0 miSouth (180°)13.8 mph23.0 mph0.01 inRainLight Rain
5:54 AM75.0 °F64.9 °F71 %29.53 in10.0 miSouth (180°)13.8 mph21.9 mph0.01 inRain-ThunderstormLight Rain
6:17 AM66.2 °F60.8 °F83 %29.64 in4.0 miWest (260°)18.4 mph40.3 mph0.04 inRain-ThunderstormThunderstorms and Rain
6:23 AM64.4 °F60.8 °F88 %29.64 in1.8 miWest (260°)15.0 mph27.6 mph0.17 inRain-ThunderstormHeavy Thunderstorms and Rain
6:50 AM62.6 °F60.8 °F94 %29.64 in3.0 miWSW (250°)9.2 mph0.41 inRain-ThunderstormLight Thunderstorms and Rain
6:54 AM63.0 °F61.0 °F93 %29.63 in3.0 miSW (230°)8.1 mph0.42 inRain-ThunderstormThunderstorms and Rain
6:56 AM64.4 °F60.8 °F88 %29.65 in7.0 miSW (220°)5.8 mph0.00 inRain-ThunderstormLight Thunderstorms and Rain
7:01 AM64.4 °F60.8 °F88 %29.65 in3.0 miSW (230°)9.2 mph0.01 inThunderstormOvercast
7:43 AM62.6 °F60.8 °F94 %29.65 in3.0 miCalm0.08 inRainRain
7:54 AM63.0 °F61.0 °F93 %29.61 in3.0 miCalm0.11 inRainRain
7:57 AM62.6 °F60.8 °F94 %29.63 in6.0 miCalm0.00 inRainLight Rain
8:54 AM63.0 °F61.0 °F93 %29.63 in4.0 miSSE (160°)5.8 mph0.08 inRainRain
9:06 AM62.6 °F60.8 °F94 %29.64 in4.0 miSE (130°)4.6 mph0.03 inRain-ThunderstormRain
9:21 AM62.6 °F60.8 °F94 %29.65 in3.0 miSE (140°)5.8 mph0.08 inRainRain
9:24 AM62.6 °F60.8 °F94 %29.64 in2.5 miESE (120°)3.5 mph0.11 inRainHeavy Rain
9:54 AM64.0 °F62.1 °F93 %29.61 in3.0 miSE (130°)4.6 mph0.18 inRainRain
10:15 AM64.4 °F62.6 °F94 %29.64 in1.8 miSSE (160°)6.9 mph0.13 inRainHeavy Rain
10:27 AM64.4 °F62.6 °F94 %29.63 in3.0 miSSE (160°)3.5 mph0.19 inRainRain
10:54 AM64.0 °F61.0 °F90 %29.61 in3.0 miSE (130°)5.8 mph0.32 inRainHeavy Rain
11:05 AM62.6 °F60.8 °F94 %29.62 in2.5 miESE (120°)9.2 mphRainRain
11:12 AM64.4 °F60.8 °F88 %29.64 in1.5 miSouth (170°)10.4 mph0.12 inRain-ThunderstormHeavy Rain
11:27 AM64.4 °F60.8 °F88 %29.63 in2.5 miSSE (160°)6.9 mph16.1 mph0.21 inRainHeavy Rain
11:42 AM64.4 °F60.8 °F88 %29.62 in2.5 miSE (140°)11.5 mph0.28 inRain-ThunderstormThunderstorms and Rain
11:54 AM63.0 °F61.0 °F93 %29.60 in2.5 miSE (130°)8.1 mph0.33 inRain-ThunderstormThunderstorms and Rain
12:09 PM62.6 °F60.8 °F94 %29.59 in2.5 miSE (130°)11.5 mph0.05 inRainRain
12:11 PM62.6 °F60.8 °F94 %29.59 in5.0 miSE (130°)10.4 mph0.05 inRainRain
12:54 PM63.0 °F61.0 °F93 %29.56 in9.0 miSouth (170°)11.5 mph20.7 mph0.12 inRainLight Rain
1:54 PM64.9 °F62.1 °F90 %29.55 in6.0 miSouth (180°)11.5 mph0.06 inRainLight Rain
2:20 PM60.8 °F57.2 °F88 %29.60 in3.0 miWest (260°)15.0 mph36.8 mph0.07 inRainRain
2:51 PM57.2 °F53.6 °F88 %29.65 in4.0 miWest (260°)19.6 mph31.1 mph0.11 inRainRain
2:54 PM55.9 °F53.1 °F90 %29.64 in4.0 miWest (260°)19.6 mph31.1 mph0.12 inRainRain
3:54 PM51.1 °F46.9 °F86 %29.65 in10.0 miWSW (250°)16.1 mph0.11 inRainLight Rain
4:25 PM50.0 °F46.4 °F87 %29.68 in10.0 miWSW (250°)15.0 mph23.0 mph0.03 inRainLight Rain
4:54 PM48.9 °F43.0 °F80 %29.67 in10.0 miWest (260°)16.1 mph27.6 mph0.03 inOvercast
5:54 PM48.0 °F39.9 °F74 %29.72 in10.0 miWest (260°)13.8 mph25.3 mphOvercast
6:54 PM46.9 °F39.0 °F74 %29.76 in10.0 miWest (270°)12.7 mph21.9 mphOvercast
7:54 PM46.0 °F37.9 °F73 %29.75 in10.0 miWest (280°)12.7 mph23.0 mphOvercast
8:54 PM45.0 °F35.1 °F68 %29.78 in10.0 miWest (280°)16.1 mph29.9 mphOvercast
9:54 PM44.1 °F32.0 °F63 %29.80 in10.0 miWest (280°)20.7 mph28.8 mphOvercast
10:54 PM43.0 °F32.0 °F65 %29.78 in10.0 miWest (280°)11.5 mph21.9 mphOvercast
11:18 PM42.8 °F32.0 °F66 %29.78 in10.0 miWNW (290°)18.4 mph33.4 mphOvercast
11:32 PM42.8 °F30.2 °F61 %29.77 in10.0 miWNW (290°)21.9 mph29.9 mphOvercast
11:54 PM42.1 °F30.0 °F62 %29.78 in10.0 miWNW (290°)13.8 mph21.9 mphOvercast
Hourly data recorded from KSUS, located miles away from St. Louis, Missouri







STORIES FROM OUR PARTNERS